| time (UTC) | temp C | wind direction | speed KPH | gust KPH | rain 1hr cm | rain 24hr cm | rain mn cm | humidity % | barometer mb |
| 20260505200020 | 19 | 285 | 24.1 | 53.1 | 0.00 | 0.25 | 0.25 | 76 | 996.4 |
| 20260505194520 | 18 | 235 | 22.5 | 43.5 | 0.00 | 0.25 | 0.25 | 81 | 996.7 |
| 20260505193017 | 17 | 258 | 16.1 | 46.7 | 0.03 | 0.25 | 0.25 | 86 | 997.3 |
| 20260505191517 | 16 | 244 | 24.1 | 43.5 | 0.05 | 0.25 | 0.25 | 91 | 997.4 |
| 20260505190014 | 15 | 231 | 14.5 | 41.8 | 0.15 | 0.25 | 0.25 | 94 | 997.7 |
| 20260505184514 | 14 | 242 | 17.7 | 33.8 | 0.18 | 0.25 | 0.25 | 94 | 998.0 |
| 20260505183017 | 13 | 211 | 9.7 | 22.5 | 0.18 | 0.23 | 0.23 | 93 | 998.4 |
| 20260505181514 | 14 | 257 | 16.1 | 29.0 | 0.20 | 0.20 | 0.20 | 90 | 998.7 |
| 20260505180017 | 15 | 269 | 16.1 | 22.5 | 0.10 | 0.10 | 0.10 | 87 | 998.5 |
| 20260505174518 | 16 | 235 | 11.3 | 24.1 | 0.08 | 0.08 | 0.08 | 85 | 998.1 |
| 20260505173017 | 17 | 296 | 29.0 | 46.7 | 0.05 | 0.05 | 0.05 | 74 | 998.6 |
| 20260505171516 | 19 | 277 | 17.7 | 48.3 | 0.00 | 0.00 | 0.00 | 64 | 998.0 |
| 20260505170010 | 20 | 215 | 22.5 | 49.9 | 0.00 | 0.00 | 0.00 | 63 | 997.8 |
| 20260505164508 | 19 | 240 | 29.0 | 46.7 | 0.00 | 0.00 | 0.00 | 61 | 998.4 |
| 20260505163006 | 21 | 231 | 25.7 | 51.5 | 0.00 | 0.00 | 0.00 | 57 | 998.5 |
| 20260505161502 | 19 | 215 | 30.6 | 57.9 | 0.00 | 0.00 | 0.00 | 59 | 999.0 |
| 20260505153106 | 20 | 245 | 22.5 | 45.1 | 0.00 | 0.00 | 0.00 | 53 | 999.1 |
| 20260505151602 | 20 | 276 | 37.0 | 56.3 | 0.00 | 0.00 | 0.00 | 55 | 999.0 |
| 20260505124534 | 14 | 288 | 8.0 | 16.1 | 0.00 | 0.00 | 0.00 | 69 | 1000.4 |
| 20260505123023 | 13 | 284 | 8.0 | 16.1 | 0.00 | 0.00 | 0.00 | 69 | 1000.5 |
| 20260505121519 | 13 | 298 | 6.4 | 12.9 | 0.00 | 0.00 | 0.00 | 70 | 1000.5 |
| 20260505120017 | 13 | 269 | 12.9 | 20.9 | 0.00 | 0.00 | 0.00 | 72 | 1000.7 |
| 20260505114510 | 12 | 295 | 4.8 | 12.9 | 0.00 | 0.00 | 0.00 | 80 | 1000.7 |
| 20260505113006 | 10 | 82 | 4.8 | 8.0 | 0.00 | 0.00 | 0.00 | 92 | 1000.6 |
| 20260505111503 | 8 | 200 | 3.2 | 8.0 | 0.00 | 0.00 | 0.00 | 95 | 1000.8 |
| 20260505101555 | 4 | 104 | 4.8 | 11.3 | 0.00 | 0.00 | 0.00 | 96 | 1001.4 |
| 20260505100054 | 3 | 113 | 4.8 | 12.9 | 0.00 | 0.00 | 0.00 | 95 | 1001.5 |
| 20260505094549 | 3 | 125 | 6.4 | 12.9 | 0.00 | 0.00 | 0.00 | 95 | 1001.4 |
| 20260505093048 | 3 | 87 | 6.4 | 12.9 | 0.00 | 0.00 | 0.00 | 94 | 1001.4 |
| 20260505091605 | 3 | 101 | 8.0 | 11.3 | 0.00 | 0.00 | 0.00 | 94 | 1001.5 |
| 20260505090045 | 3 | 91 | 8.0 | 11.3 | 0.00 | 0.00 | 0.00 | 94 | 1001.7 |
| 20260505084540 | 3 | 82 | 6.4 | 12.9 | 0.00 | 0.00 | 0.00 | 93 | 1001.8 |
| 20260505083039 | 4 | 87 | 6.4 | 11.3 | 0.00 | 0.00 | 0.00 | 93 | 1001.8 |
| 20260505081539 | 4 | 98 | 6.4 | 9.7 | 0.00 | 0.00 | 0.00 | 92 | 1001.8 |
| 20260505080034 | 5 | 102 | 9.7 | 14.5 | 0.00 | 0.00 | 0.00 | 91 | 1001.8 |
| 20260505074530 | 5 | 127 | 12.9 | 16.1 | 0.00 | 0.00 | 0.00 | 91 | 1001.9 |
| 20260505073031 | 5 | 116 | 11.3 | 16.1 | 0.00 | 0.00 | 0.00 | 90 | 1001.7 |
| 20260505071524 | 6 | 122 | 6.4 | 14.5 | 0.00 | 0.00 | 0.00 | 89 | 1002.1 |
| 20260505070022 | 7 | 125 | 9.7 | 12.9 | 0.00 | 0.00 | 0.00 | 87 | 1002.3 |
| 20260505064520 | 7 | 138 | 9.7 | 17.7 | 0.00 | 0.00 | 0.00 | 87 | 1002.5 |
| 20260505063018 | 6 | 123 | 11.3 | 16.1 | 0.00 | 0.00 | 0.00 | 90 | 1002.8 |
| 20260505061515 | 6 | 138 | 8.0 | 12.9 | 0.00 | 0.00 | 0.00 | 89 | 1003.0 |
| 20260505060014 | 6 | 109 | 8.0 | 11.3 | 0.00 | 0.00 | 0.00 | 89 | 1003.1 |
| 20260505054512 | 6 | 163 | 6.4 | 11.3 | 0.00 | 0.00 | 0.00 | 88 | 1003.5 |
| 20260505053011 | 6 | 119 | 3.2 | 8.0 | 0.00 | 0.00 | 0.00 | 87 | 1003.5 |
| 20260505051530 | 6 | 120 | 4.8 | 12.9 | 0.00 | 0.00 | 0.00 | 86 | 1003.5 |
| 20260505041501 | 6 | 103 | 3.2 | 6.4 | 0.00 | 0.00 | 0.00 | 85 | 1004.0 |
| 20260505040057 | 7 | 141 | 4.8 | 11.3 | 0.00 | 0.00 | 0.00 | 84 | 1003.9 |
| 20260505034555 | 7 | 171 | 4.8 | 6.4 | 0.00 | 0.00 | 0.00 | 82 | 1004.1 |
| 20260505033056 | 8 | 190 | 3.2 | 12.9 | 0.00 | 0.00 | 0.00 | 81 | 1004.1 |
| 20260505031558 | 8 | 216 | 8.0 | 16.1 | 0.00 | 0.00 | 0.00 | 80 | 1004.2 |
| 20260505030054 | 8 | 230 | 6.4 | 12.9 | 0.00 | 0.00 | 0.00 | 79 | 1004.3 |
| 20260505024555 | 8 | 234 | 11.3 | 17.7 | 0.00 | 0.00 | 0.00 | 78 | 1004.5 |
| 20260505023056 | 8 | 214 | 9.7 | 24.1 | 0.00 | 0.00 | 0.00 | 77 | 1004.6 |
| 20260505021553 | 8 | 265 | 17.7 | 30.6 | 0.00 | 0.00 | 0.00 | 77 | 1004.6 |
| 20260505014553 | 8 | 225 | 19.3 | 29.0 | 0.00 | 0.00 | 0.00 | 77 | 1004.6 |
| 20260505013100 | 8 | 223 | 12.9 | 25.7 | 0.00 | 0.00 | 0.00 | 77 | 1004.7 |
| 20260505011553 | 8 | 244 | 17.7 | 29.0 | 0.00 | 0.00 | 0.00 | 76 | 1004.8 |
| 20260505010108 | 8 | 262 | 17.7 | 38.6 | 0.00 | 0.00 | 0.00 | 77 | 1004.6 |
| 20260505004550 | 8 | 282 | 17.7 | 30.6 | 0.00 | 0.00 | 0.00 | 77 | 1004.5 |
| 20260505003055 | 8 | 249 | 14.5 | 27.4 | 0.00 | 0.00 | 0.00 | 76 | 1004.3 |
| 20260505001549 | 8 | 272 | 17.7 | 32.2 | 0.00 | 0.00 | 0.00 | 76 | 1003.8 |
| 20260505000049 | 8 | 236 | 16.1 | 33.8 | 0.00 | 0.00 | 0.00 | 75 | 1003.7 |
| 20260504234548 | 8 | 241 | 20.9 | 38.6 | 0.00 | 0.00 | 0.00 | 75 | 1003.5 |
| 20260504233104 | 8 | 265 | 25.7 | 40.2 | 0.00 | 0.00 | 0.00 | 74 | 1003.3 |
| 20260504231549 | 8 | 243 | 22.5 | 40.2 | 0.00 | 0.00 | 0.00 | 74 | 1003.0 |
| 20260504230054 | 8 | 236 | 17.7 | 32.2 | 0.00 | 0.00 | 0.00 | 74 | 1002.7 |
| 20260504224550 | 8 | 286 | 22.5 | 37.0 | 0.00 | 0.00 | 0.00 | 74 | 1002.6 |
| 20260504223046 | 8 | 239 | 17.7 | 43.5 | 0.00 | 0.00 | 0.00 | 74 | 1002.5 |
| 20260504221546 | 9 | 255 | 22.5 | 41.8 | 0.00 | 0.00 | 0.00 | 74 | 1002.4 |
| 20260504220045 | 9 | 266 | 25.7 | 43.5 | 0.00 | 0.00 | 0.00 | 74 | 1002.6 |
| 20260504214553 | 10 | 252 | 33.8 | 53.1 | 0.00 | 0.00 | 0.00 | 71 | 1002.5 |
| 20260504213045 | 10 | 271 | 33.8 | 53.1 | 0.00 | 0.00 | 0.00 | 69 | 1002.5 |
| 20260504211544 | 11 | 277 | 19.3 | 43.5 | 0.00 | 0.00 | 0.00 | 69 | 1002.6 |
| 20260504210045 | 10 | 265 | 27.4 | 46.7 | 0.00 | 0.00 | 0.00 | 68 | 1002.4 |
| 20260504204548 | 11 | 360 | 24.1 | 53.1 | 0.00 | 0.00 | 0.00 | 65 | 1002.3 |
| 20260504203055 | 11 | 281 | 27.4 | 49.9 | 0.00 | 0.00 | 0.00 | 68 | 1002.3 |
| 20260504201541 | 11 | 360 | 22.5 | 41.8 | 0.00 | 0.00 | 0.00 | 69 | 1002.0 |